SCP
0 0 0 0 0 0 0 0 0 0 0 0 0 0 0 0 0 0 0 -0 -0 -0 -0 0 0 0 0 0 0 0 0 0 0 0 0 0 0 0
0 0 1 0 0 0 0 0 0 0 0 0 0 0 0 0 0 0 0 0 0 0 0 0 0 0 0 0 0 0 0 0 0 0 0 0 0 0
0 1 1 1 0 0 0 0 0 0 0 0 0 1 1 0 0 1 0 0 0 0 0 0 0 0 0 0 0 0 0 0 0 0 0 0 0 0
0 0 0 0 1 0 0 0 1 1 0 0 0 0 1 1 1 1 0 0 1 0 0 0 0 0 0 0 0 0 0 0 0 0 0 0 0 0
1 1 0 0 1 0 0 0 1 1 1 0 0 0 0 0 1 1 0 0 1 0 0 0 0 0 0 0 0 0 0 0 0 0 0 0 0 0
1 1 1 1 1 1 0 1 0 1 1 0 0 0 0 1 0 0 0 2 1 1 0 0 0 0 0 0 0 0 0 0 0 0 0 0 0 0
1 1 1 1 1 1 2 1 1 1 0 0 1 0 0 0 2 1 1 2 2 2 2 0 0 0 0 0 0 0 0 0 0 0 0 0 0 0
1 1 2 1 1 1 0 0 1 2 1 1 0 0 1 1 1 1 1 2 2 3 2 0 0 0 0 0 0 0 0 0 0 0 0 0 0 0
2 1 1 1 1 2 0 0 0 0 0 2 2 1 1 2 3 3 2 2 2 2 1 0 0 0 0 0 0 0 0 0 0 0 0 0 0 0
1 2 2 2 1 2 2 2 2 2 1 1 1 2 2 2 3 2 2 2 2 3 2 0 0 0 0 0 0 0 0 0 0 0 0 0 0 0
1 1 1 1 1 0 2 2 3 2 1 1 1 0 1 1 1 2 2 3 2 3 2 1 0 0 0 0 0 0 0 0 0 0 0 0 0 0
1 1 0 0 0 0 1 1 1 1 2 2 1 0 0 0 0 2 3 3 3 2 2 0 0 0 0 0 0 0 0 0 0 0 0 0 0 0
1 0 0 0 0 0 0 0 1 0 1 2 2 2 2 1 2 1 2 2 3 1 0 0 0 0 0 0 0 0 0 0 0 0 0 0 0 -0
0 0 0 0 0 0 0 0 0 0 0 2 2 3 3 1 0 0 0 0 0 0 0 0 0 0 0 0 0 0 0 0 0 0 0 0 0 -0
0 0 0 0 0 0 0 0 0 0 0 0 1 0 0 0 0 0 0 0 0 0 0 0 0 0 0 0 0 0 0 0 0 0 0 0 0 0
0 0 0 0 0 0 0 0 0 0 0 0 0 0 0 0 0 0 0 0 0 0 0 0 0 0 0 0 0 0 0 0 0 0 0 0 0 0
0 0 0 0 0 -0 -0 -0 0 -0 0 0 0 -0 0 0 0 0 0 0 0 0 0 0 0 0 0 0 0 -0 0 0 0 0 0 0 0 0
0 0 0 0 0 0 0 0 0 0 -0 -0 0 -0 0 0 0 0 -0 -0 -0 0 0 0 0 0 0 0 0 0 0 0 0 0 0 0 0 0
0 0 0 0 0 0 0 0 0 0 0 0 -0 0 -0 -0 -0 -0 0 0 0 0 0 -0 0 0 0 0 0 0 0 0 0 0 0 0 0 0
0 0 0 0 0 0 0 0 0 0 0 0 0 0 0 0 0 0 0 0 0 0 0 0 0 0 0 0 0 0 0 0 0 0 0 0 0 0
0 0 0 0 0 0 0 0 0 0 0 0 0 0 0 0 0 0 0 0 0 0 0 0 0 0 0 0 0 0 0 0 0 0 0 0 0 0
0 0 0 0 0 0 0 0 0 0 0 0 0 0 0 0 0 0 0 0 0 0 0 0 0 0 0 0 0 0 0 0 0 0 0 0 0 0
0 0 0 0 0 0 0 0 0 0 0 0 0 0 0 0 0 0 0 0 0 0 0 0 0 0 0 0 0 0 0 0 0 0 0 0 0 0
Wind_Speed_500mb
27 28 27 25 24 23 22 22 23 27 26 13 11 23 13 15 14 14 13 26 22 24 25 23 22 21 19 19 18 18 19 20 20 19 19 20 22 25
29 30 29 25 27 24 26 26 26 26 30 22 17 7 16 15 18 17 18 27 23 23 25 25 25 25 24 24 24 23 24 25 26 25 24 24 27 29
30 29 25 34 27 29 25 28 25 25 30 31 20 17 19 26 24 16 21 27 28 29 27 29 28 27 26 27 28 29 29 29 30 30 28 27 30 32
30 32 33 30 36 29 32 27 29 29 29 41 36 31 27 25 23 24 26 22 32 29 30 33 32 28 28 30 30 31 32 32 35 34 32 28 26 31
38 42 38 40 41 34 35 33 33 32 29 28 27 24 29 30 28 31 24 22 30 39 40 40 31 30 31 31 33 34 33 31 35 28 29 28 28 28
47 47 44 41 41 44 40 40 39 34 29 30 31 35 36 35 31 28 28 28 30 18 28 31 24 26 30 32 34 32 30 30 26 27 27 30 32 32
50 47 47 49 51 49 48 38 38 37 32 34 39 34 33 39 35 42 30 33 38 32 38 39 32 32 32 32 32 27 27 25 24 27 29 31 32 29
59 61 57 54 55 56 56 54 47 45 46 37 35 39 40 35 28 32 37 34 33 34 42 38 35 33 31 29 29 25 27 27 28 30 29 29 22 11
55 50 50 52 55 58 56 55 62 63 63 55 54 51 46 47 41 43 45 38 39 38 36 39 29 33 34 36 30 29 32 32 31 30 22 16 8 7
64 60 62 59 61 52 52 59 60 62 69 68 66 66 60 50 51 47 44 38 35 36 34 34 38 36 37 33 34 35 36 35 27 19 15 13 11 12
50 55 59 61 64 61 65 70 62 68 54 56 60 60 56 54 50 45 44 40 38 37 38 37 44 38 37 38 39 41 35 24 20 14 15 13 10 17
49 43 45 48 50 54 59 64 68 70 66 69 73 66 62 63 61 56 48 51 45 37 40 43 50 43 37 38 36 27 17 13 14 18 13 10 12 18
46 54 49 42 45 49 56 61 69 67 65 66 69 68 56 55 61 61 63 63 51 49 46 48 50 43 30 14 20 14 14 14 15 13 11 11 13 19
42 43 46 51 51 53 56 60 70 73 72 71 71 69 59 64 57 58 54 52 47 51 41 36 34 16 23 19 16 18 20 18 17 13 12 15 13 23
8 5 7 14 17 17 18 26 40 52 58 59 62 69 66 69 66 55 46 38 36 36 25 21 15 20 16 7 12 18 23 20 21 18 16 16 21 24
1 2 7 16 15 19 13 17 21 14 10 15 26 38 52 50 48 41 36 23 21 17 22 23 25 26 15 17 15 17 18 6 16 19 19 10 9 16
5 9 6 2 6 14 21 24 27 33 24 39 41 20 5 5 13 23 25 27 21 26 23 24 28 25 15 16 11 10 15 13 13 15 17 10 9 10
6 8 9 12 14 6 11 11 10 6 19 37 30 37 36 26 22 16 19 12 17 18 17 18 24 25 26 25 24 21 19 17 19 22 23 22 24 20
0 2 2 2 6 4 7 3 6 3 8 7 16 21 11 20 20 23 23 25 28 26 19 24 25 19 19 15 26 24 17 16 20 16 12 16 21 22
4 2 2 6 5 5 6 1 2 3 7 9 8 12 14 13 13 14 17 18 18 21 26 25 22 21 18 17 16 23 32 27 20 18 20 17 17 15
8 7 5 6 7 7 10 12 8 9 6 8 11 13 13 12 10 10 9 14 17 16 17 17 21 23 22 20 12 16 27 38 29 27 23 23 26 29
8 5 5 2 3 4 5 7 10 10 7 12 10 12 13 13 15 17 19 25 24 19 17 21 24 25 19 17 20 26 18 17 21 27 33 23 15 4
8 5 7 7 7 6 3 2 3 8 9 13 14 14 16 18 18 19 19 18 17 18 19 22 13 19 18 19 21 19 25 26 19 23 24 19 23 26
Wind_Direction_500mb
256 262 263 255 258 265 265 265 267 284 285 221 251 263 245 266 236 267 251 270 268 256 263 278 285 289 287 284 282 280 278 284 292 295 302 306 315 319
249 251 244 252 259 262 259 265 260 266 271 271 284 221 253 258 293 284 244 258 266 261 262 271 277 282 282 279 276 276 277 282 287 291 295 307 318 316
244 243 243 246 249 258 244 250 266 257 271 270 298 301 295 289 254 270 281 293 271 282 271 272 272 275 272 275 274 273 276 280 284 285 287 298 312 314
242 235 241 254 263 261 253 256 256 245 251 263 271 283 277 275 279 254 255 262 285 273 275 278 273 270 268 275 271 274 279 283 285 282 277 281 296 302
242 245 246 244 250 252 245 252 254 249 252 257 269 270 268 262 262 261 259 264 264 270 274 269 266 268 267 266 266 274 281 280 282 281 279 278 293 302
239 245 245 248 260 261 250 248 245 250 257 261 267 268 266 262 260 259 254 259 244 266 264 274 263 264 265 268 271 275 274 276 274 277 274 285 292 297
233 239 241 246 251 262 247 243 242 249 249 257 257 262 265 254 261 260 245 262 264 250 247 261 275 271 269 269 271 270 270 265 270 274 282 291 299 300
245 242 239 240 244 249 249 248 240 243 241 249 256 261 265 272 262 270 275 270 257 252 246 258 268 268 270 267 268 265 260 264 271 276 285 295 300 296
260 253 253 251 252 253 258 255 246 242 249 254 255 255 254 251 254 252 264 263 256 254 257 261 260 261 264 268 266 257 259 263 271 273 278 284 251 236
255 256 258 254 241 245 249 247 250 248 247 250 254 260 260 257 253 261 265 260 258 251 241 250 264 256 260 259 255 256 261 261 259 250 245 216 210 193
262 261 258 257 258 252 247 248 251 254 256 259 260 260 261 257 255 260 256 257 251 243 243 234 247 253 247 251 250 251 250 250 252 229 209 207 200 177
261 262 265 267 268 262 258 256 258 260 259 258 259 261 259 257 255 249 250 254 252 248 240 234 251 250 232 239 238 242 233 226 213 203 203 215 202 171
254 252 254 261 258 263 258 258 257 261 262 259 258 259 258 255 250 247 245 248 247 243 248 246 240 237 221 186 222 220 219 214 201 207 220 229 212 187
261 263 266 270 273 272 273 275 266 261 262 263 259 256 251 246 245 247 249 249 246 241 245 254 231 220 220 212 196 187 217 216 214 221 219 214 203 188
245 264 302 300 304 304 306 305 281 271 267 264 257 249 245 245 253 257 254 242 247 240 219 184 196 198 180 179 207 207 210 211 203 206 217 214 201 190
138 133 26 12 344 347 341 14 31 30 330 265 245 235 221 219 236 238 213 171 124 147 174 186 166 144 127 170 241 180 175 182 199 197 189 173 194 192
280 281 307 43 60 40 39 31 41 37 33 67 57 47 330 132 136 147 131 134 147 173 167 163 162 155 161 154 149 142 131 227 196 167 152 213 244 237
274 259 251 240 230 282 323 333 11 58 71 73 73 79 84 102 106 127 98 96 126 133 148 161 155 159 168 162 168 172 175 175 184 208 166 208 219 219
121 227 224 260 292 334 349 341 301 86 103 131 125 101 147 161 171 166 159 166 167 171 165 154 147 151 164 181 187 184 179 193 196 207 200 200 242 241
95 173 144 119 136 157 149 66 337 128 142 150 170 172 173 183 197 196 173 161 163 171 177 177 182 188 205 212 210 206 191 190 219 224 226 227 241 238
209 203 229 248 237 224 220 188 184 191 190 183 184 197 208 202 174 149 155 168 172 182 190 198 187 194 214 191 177 212 215 205 208 210 221 235 235 238
219 204 207 285 257 227 229 178 197 196 203 182 203 205 212 178 190 189 202 200 196 197 190 215 216 224 215 194 227 208 218 221 224 235 232 225 229 259
185 225 199 217 232 252 262 241 255 203 193 190 191 192 200 204 205 206 205 201 206 207 206 207 222 210 222 230 238 247 226 215 241 255 252 228 231 243
Wind_Speed_850mb
27 28 27 25 24 23 22 22 23 27 26 13 11 23 13 15 14 14 13 26 22 24 25 23 22 21 19 19 18 18 19 20 20 19 19 20 22 25
29 30 29 25 27 24 26 26 26 26 30 22 17 7 16 15 18 17 18 27 23 23 25 25 25 25 24 24 24 23 24 25 26 25 24 24 27 29
30 29 25 34 27 29 25 28 25 25 30 31 20 17 19 26 24 16 21 27 28 29 27 29 28 27 26 27 28 29 29 29 30 30 28 27 30 32
30 32 33 30 36 29 32 27 29 29 29 41 36 31 27 25 23 24 26 22 32 29 30 33 32 28 28 30 30 31 32 32 35 34 32 28 26 31
38 42 38 40 41 34 35 33 33 32 29 28 27 24 29 30 28 31 24 22 30 39 40 40 31 30 31 31 33 34 33 31 35 28 29 28 28 28
47 47 44 41 41 44 40 40 39 34 29 30 31 35 36 35 31 28 28 28 30 18 28 31 24 26 30 32 34 32 30 30 26 27 27 30 32 32
50 47 47 49 51 49 48 38 38 37 32 34 39 34 33 39 35 42 30 33 38 32 38 39 32 32 32 32 32 27 27 25 24 27 29 31 32 29
59 61 57 54 55 56 56 54 47 45 46 37 35 39 40 35 28 32 37 34 33 34 42 38 35 33 31 29 29 25 27 27 28 30 29 29 22 11
55 50 50 52 55 58 56 55 62 63 63 55 54 51 46 47 41 43 45 38 39 38 36 39 29 33 34 36 30 29 32 32 31 30 22 16 8 7
64 60 62 59 61 52 52 59 60 62 69 68 66 66 60 50 51 47 44 38 35 36 34 34 38 36 37 33 34 35 36 35 27 19 15 13 11 12
50 55 59 61 64 61 65 70 62 68 54 56 60 60 56 54 50 45 44 40 38 37 38 37 44 38 37 38 39 41 35 24 20 14 15 13 10 17
49 43 45 48 50 54 59 64 68 70 66 69 73 66 62 63 61 56 48 51 45 37 40 43 50 43 37 38 36 27 17 13 14 18 13 10 12 18
46 54 49 42 45 49 56 61 69 67 65 66 69 68 56 55 61 61 63 63 51 49 46 48 50 43 30 14 20 14 14 14 15 13 11 11 13 19
42 43 46 51 51 53 56 60 70 73 72 71 71 69 59 64 57 58 54 52 47 51 41 36 34 16 23 19 16 18 20 18 17 13 12 15 13 23
8 5 7 14 17 17 18 26 40 52 58 59 62 69 66 69 66 55 46 38 36 36 25 21 15 20 16 7 12 18 23 20 21 18 16 16 21 24
1 2 7 16 15 19 13 17 21 14 10 15 26 38 52 50 48 41 36 23 21 17 22 23 25 26 15 17 15 17 18 6 16 19 19 10 9 16
5 9 6 2 6 14 21 24 27 33 24 39 41 20 5 5 13 23 25 27 21 26 23 24 28 25 15 16 11 10 15 13 13 15 17 10 9 10
6 8 9 12 14 6 11 11 10 6 19 37 30 37 36 26 22 16 19 12 17 18 17 18 24 25 26 25 24 21 19 17 19 22 23 22 24 20
0 2 2 2 6 4 7 3 6 3 8 7 16 21 11 20 20 23 23 25 28 26 19 24 25 19 19 15 26 24 17 16 20 16 12 16 21 22
4 2 2 6 5 5 6 1 2 3 7 9 8 12 14 13 13 14 17 18 18 21 26 25 22 21 18 17 16 23 32 27 20 18 20 17 17 15
8 7 5 6 7 7 10 12 8 9 6 8 11 13 13 12 10 10 9 14 17 16 17 17 21 23 22 20 12 16 27 38 29 27 23 23 26 29
8 5 5 2 3 4 5 7 10 10 7 12 10 12 13 13 15 17 19 25 24 19 17 21 24 25 19 17 20 26 18 17 21 27 33 23 15 4
8 5 7 7 7 6 3 2 3 8 9 13 14 14 16 18 18 19 19 18 17 18 19 22 13 19 18 19 21 19 25 26 19 23 24 19 23 26
Wind_Direction_850mb
256 262 263 255 258 265 265 265 267 284 285 221 251 263 245 266 236 267 251 270 268 256 263 278 285 289 287 284 282 280 278 284 292 295 302 306 315 319
249 251 244 252 259 262 259 265 260 266 271 271 284 221 253 258 293 284 244 258 266 261 262 271 277 282 282 279 276 276 277 282 287 291 295 307 318 316
244 243 243 246 249 258 244 250 266 257 271 270 298 301 295 289 254 270 281 293 271 282 271 272 272 275 272 275 274 273 276 280 284 285 287 298 312 314
242 235 241 254 263 261 253 256 256 245 251 263 271 283 277 275 279 254 255 262 285 273 275 278 273 270 268 275 271 274 279 283 285 282 277 281 296 302
242 245 246 244 250 252 245 252 254 249 252 257 269 270 268 262 262 261 259 264 264 270 274 269 266 268 267 266 266 274 281 280 282 281 279 278 293 302
239 245 245 248 260 261 250 248 245 250 257 261 267 268 266 262 260 259 254 259 244 266 264 274 263 264 265 268 271 275 274 276 274 277 274 285 292 297
233 239 241 246 251 262 247 243 242 249 249 257 257 262 265 254 261 260 245 262 264 250 247 261 275 271 269 269 271 270 270 265 270 274 282 291 299 300
245 242 239 240 244 249 249 248 240 243 241 249 256 261 265 272 262 270 275 270 257 252 246 258 268 268 270 267 268 265 260 264 271 276 285 295 300 296
260 253 253 251 252 253 258 255 246 242 249 254 255 255 254 251 254 252 264 263 256 254 257 261 260 261 264 268 266 257 259 263 271 273 278 284 251 236
255 256 258 254 241 245 249 247 250 248 247 250 254 260 260 257 253 261 265 260 258 251 241 250 264 256 260 259 255 256 261 261 259 250 245 216 210 193
262 261 258 257 258 252 247 248 251 254 256 259 260 260 261 257 255 260 256 257 251 243 243 234 247 253 247 251 250 251 250 250 252 229 209 207 200 177
261 262 265 267 268 262 258 256 258 260 259 258 259 261 259 257 255 249 250 254 252 248 240 234 251 250 232 239 238 242 233 226 213 203 203 215 202 171
254 252 254 261 258 263 258 258 257 261 262 259 258 259 258 255 250 247 245 248 247 243 248 246 240 237 221 186 222 220 219 214 201 207 220 229 212 187
261 263 266 270 273 272 273 275 266 261 262 263 259 256 251 246 245 247 249 249 246 241 245 254 231 220 220 212 196 187 217 216 214 221 219 214 203 188
245 264 302 300 304 304 306 305 281 271 267 264 257 249 245 245 253 257 254 242 247 240 219 184 196 198 180 179 207 207 210 211 203 206 217 214 201 190
138 133 26 12 344 347 341 14 31 30 330 265 245 235 221 219 236 238 213 171 124 147 174 186 166 144 127 170 241 180 175 182 199 197 189 173 194 192
280 281 307 43 60 40 39 31 41 37 33 67 57 47 330 132 136 147 131 134 147 173 167 163 162 155 161 154 149 142 131 227 196 167 152 213 244 237
274 259 251 240 230 282 323 333 11 58 71 73 73 79 84 102 106 127 98 96 126 133 148 161 155 159 168 162 168 172 175 175 184 208 166 208 219 219
121 227 224 260 292 334 349 341 301 86 103 131 125 101 147 161 171 166 159 166 167 171 165 154 147 151 164 181 187 184 179 193 196 207 200 200 242 241
95 173 144 119 136 157 149 66 337 128 142 150 170 172 173 183 197 196 173 161 163 171 177 177 182 188 205 212 210 206 191 190 219 224 226 227 241 238
209 203 229 248 237 224 220 188 184 191 190 183 184 197 208 202 174 149 155 168 172 182 190 198 187 194 214 191 177 212 215 205 208 210 221 235 235 238
219 204 207 285 257 227 229 178 197 196 203 182 203 205 212 178 190 189 202 200 196 197 190 215 216 224 215 194 227 208 218 221 224 235 232 225 229 259
185 225 199 217 232 252 262 241 255 203 193 190 191 192 200 204 205 206 205 201 206 207 206 207 222 210 222 230 238 247 226 215 241 255 252 228 231 243